Hourly Weather Roundup
Issued by NWS

Home | Current Version | Previous Version | Text Only | Print | Product List | Glossary On
Versions: 1 2 3 4 5 6 7 8 9 10 11 12 13 14 15 16 17 18 19 20 21 22 23 24 25 26 27 28 29 30 31 32 33 34 35 36 37 38 39 40 41 42 43 44 45 46 47 48 49 50
709
NZUS43 KILX 182210
HWRCRS

NWR HOURLY WEATHER ROUNDUP
NATIONAL WEATHER SERVICE, LINCOLN IL
400 PM CST WED JAN 18 2017


CITY           SKY/WX    TMP DP  RH WIND       PRES   REMARKS
CHAMPAIGN      CLOUDY    40  35  83 S15       30.11S WCI  32
LAWRENCEVILLE  CLOUDY    41  37  86 S8        30.15F
PEORIA         CLEAR     39  34  82 SW3       30.07F
SPRINGFIELD    PTCLDY    45  36  70 S8        30.09F
$$


CITY           SKY/WX    TMP DP  RH WIND       PRES   REMARKS
BLOOMINGTON    MOCLDY    38  35  89 SW10      30.08S WCI  31
DANVILLE       CLOUDY    38  35  87 S13       30.09R WCI  30
DECATUR        CLOUDY    43  37  79 S8        30.10F
EFFINGHAM      CLOUDY    42  37  84 SE3       30.14S
FLORA          PTCLDY    44  37  78 S8        30.16R
GALESBURG      CLEAR     40  36  83 S7        30.04F
JACKSONVILLE   PTCLDY    44  35  70 S8        30.10R
LACON          PTCLDY    38  32  80 SW8       30.08R WCI  32
LINCOLN        CLOUDY    44  37  77 S6        30.10R
LITCHFIELD     CLOUDY    42  37  82 S10       30.11S

CITY           SKY/WX    TMP DP  RH WIND       PRES   REMARKS
MACOMB         CLOUDY    42  37  83 S7        30.08S
MATTOON        CLOUDY    39  34  82 S8        30.10F WCI  33
MOLINE         CLEAR     42  35  76 S3        30.04S
OLNEY          MOCLDY    41  37  87 SE6       30.14S
PARIS          CLOUDY    38  35  88 S12       30.14R WCI  31
PONTIAC        CLOUDY    39  37  93 SW8       30.10R WCI  34
QUINCY         SUNNY     43  36  76 S10       30.08R
RANTOUL        CLOUDY    41  37  86 SW9       30.10S WCI  35
ROBINSON       CLOUDY    39  35  86 SE5       30.16F
TAYLORVILLE    PTCLDY    43  36  74 S12       30.11R
TERRE HAUTE    CLOUDY    39  33  79 SW13      30.14F WCI  31
$$


CITY           SKY/WX    TMP DP  RH WIND       PRES   REMARKS
BURLINGTON     CLOUDY    41  37  86 S14       30.05S WCI  33
CHICAGO        CLOUDY    36  32  85 SW8       30.05S WCI  30
DES MOINES     MOSUNNY   45  36  70 S14       29.98R
EVANSVILLE     PTCLDY    44  35  70 S6        30.16S
INDIANAPOLIS   CLOUDY    38  35  89 SW9       30.12S WCI  31
KANSAS CITY    SUNNY     48  37  65 SE10      30.00F
MILWAUKEE      CLOUDY    36  31  82 SW13      30.01F WCI  27
ST LOUIS       PTSUNNY   48  34  58 SE8       30.10F
$$





USA.gov is the U.S. government's official web portal to all federal, state and local government web resources and services.